Hourly Weather Godziszowa

Today, 18 January, Monday

Time Temperature Precipitation Wind Pressure Humidity
00:00 -12°C° 0 mm 1 mps 750 mmHg 89%
01:00 -12°C° 0 mm 1 mps 750 mmHg 92%
02:00 -11°C° 0 mm 1 mps 750 mmHg 91%
03:00 -11°C° 0 mm 1 mps 749 mmHg 89%
04:00 -11°C° 0 mm 1 mps 749 mmHg 88%
05:00 -11°C° 0 mm 1 mps 749 mmHg 87%
06:00 -10°C° 0 mm 1 mps 749 mmHg 86%
07:00 -10°C° 0 mm 1 mps 749 mmHg 84%
08:00 -9°C° 0 mm 1 mps 749 mmHg 84%
09:00 -8°C° 0 mm 1 mps 749 mmHg 84%
10:00 -7°C° 0 mm 1 mps 749 mmHg 84%
11:00 -6°C° 0 mm 1 mps 749 mmHg 86%
12:00 -4°C° 0 mm 1 mps 748 mmHg 87%
13:00 -3°C° 0 mm 1 mps 748 mmHg 88%
14:00 -3°C° 0.2 mm 1 mps 748 mmHg 91%
15:00 -4°C° 0.2 mm 2 mps 748 mmHg 94%
16:00 -4°C° 0.2 mm 2 mps 748 mmHg 97%
17:00 -3°C° 0.3 mm 2 mps 748 mmHg 97%
18:00 -4°C° 0.3 mm 3 mps 748 mmHg 97%
19:00 -2°C° 0.3 mm 3 mps 748 mmHg 97%
20:00 -2°C° 0.1 mm 3 mps 748 mmHg 96%
21:00 -2°C° 0.1 mm 3 mps 747 mmHg 96%
22:00 -2°C° 0.1 mm 3 mps 747 mmHg 95%
23:00 -2°C° 0.2 mm 3 mps 747 mmHg 95%

Tomorrow, 19 January, Tuesday

Time Temperature Precipitation Wind Pressure Humidity
00:00 -3°C° 0.2 mm 4 mps 747 mmHg 95%
01:00 -3°C° 0.2 mm 4 mps 747 mmHg 94%
02:00 -3°C° 0.1 mm 4 mps 746 mmHg 94%
03:00 -3°C° 0.1 mm 4 mps 746 mmHg 94%
04:00 -2°C° 0.1 mm 4 mps 745 mmHg 94%
05:00 -2°C° 0 mm 4 mps 745 mmHg 93%
06:00 -2°C° 0 mm 4 mps 745 mmHg 93%
07:00 -1°C° 0 mm 3 mps 745 mmHg 93%
08:00 -1°C° 0 mm 3 mps 745 mmHg 91%
09:00 -1°C° 0 mm 3 mps 744 mmHg 89%
10:00 0°C° 0 mm 3 mps 744 mmHg 87%
11:00 0°C° 0 mm 3 mps 744 mmHg 88%
12:00 -1°C° 0 mm 4 mps 743 mmHg 89%
13:00 -1°C° 0 mm 4 mps 743 mmHg 90%
14:00 -1°C° 0.1 mm 4 mps 742 mmHg 89%
15:00 -1°C° 0.1 mm 4 mps 741 mmHg 89%
16:00 -1°C° 0.1 mm 4 mps 741 mmHg 89%
17:00 -1°C° 0.1 mm 4 mps 740 mmHg 89%
18:00 -1°C° 0.1 mm 5 mps 740 mmHg 89%
19:00 -1°C° 0.1 mm 5 mps 739 mmHg 89%
20:00 0°C° 0.5 mm 5 mps 739 mmHg 92%
21:00 0°C° 0.5 mm 5 mps 739 mmHg 95%
22:00 +1°C° 0.5 mm 5 mps 739 mmHg 97%
23:00 +1°C° 0.1 mm 5 mps 739 mmHg 97%

Day after tomorrow, 20 January, Wednesday

Time Temperature Precipitation Wind Pressure Humidity
00:00 +2°C° 0.1 mm 5 mps 739 mmHg 96%
01:00 +2°C° 0.1 mm 5 mps 739 mmHg 96%
02:00 +2°C° 0 mm 5 mps 739 mmHg 94%
03:00 +1°C° 0 mm 5 mps 739 mmHg 93%
04:00 +1°C° 0 mm 5 mps 739 mmHg 91%
05:00 +1°C° 0 mm 5 mps 739 mmHg 89%
06:00 +1°C° 0 mm 4 mps 739 mmHg 88%
07:00 0°C° 0 mm 4 mps 739 mmHg 86%
08:00 +1°C° 0 mm 5 mps 739 mmHg 83%
09:00 +1°C° 0 mm 6 mps 739 mmHg 80%
10:00 +1°C° 0 mm 6 mps 739 mmHg 77%
11:00 +1°C° 0 mm 6 mps 739 mmHg 77%
12:00 +2°C° 0 mm 6 mps 739 mmHg 78%
13:00 +2°C° 0 mm 6 mps 739 mmHg 79%
14:00 +2°C° 0 mm 5 mps 739 mmHg 78%
15:00 +2°C° 0 mm 5 mps 738 mmHg 77%
16:00 +1°C° 0 mm 5 mps 738 mmHg 76%
17:00 +1°C° 0 mm 5 mps 738 mmHg 74%
18:00 +1°C° 0 mm 5 mps 739 mmHg 73%
19:00 +1°C° 0 mm 5 mps 739 mmHg 71%
20:00 +1°C° 0 mm 5 mps 739 mmHg 71%
21:00 +1°C° 0 mm 5 mps 739 mmHg 71%
22:00 +1°C° 0 mm 5 mps 738 mmHg 71%
23:00 +1°C° 0 mm 5 mps 738 mmHg 70%

21 January, Thursday

Time Temperature Precipitation Wind Pressure Humidity
00:00 +1°C° 0 mm 4 mps 738 mmHg 69%
01:00 +1°C° 0 mm 4 mps 738 mmHg 69%
02:00 0°C° 0 mm 4 mps 738 mmHg 69%
03:00 0°C° 0 mm 4 mps 738 mmHg 70%
04:00 0°C° 0 mm 4 mps 738 mmHg 71%
05:00 0°C° 0 mm 4 mps 737 mmHg 75%
06:00 -1°C° 0 mm 4 mps 737 mmHg 78%
07:00 -1°C° 0 mm 4 mps 737 mmHg 81%
08:00 -1°C° 0 mm 4 mps 737 mmHg 83%
09:00 +1°C° 0 mm 3 mps 737 mmHg 85%
10:00 +1°C° 0 mm 3 mps 737 mmHg 87%
11:00 +2°C° 0 mm 3 mps 737 mmHg 88%
12:00 +2°C° 0 mm 3 mps 737 mmHg 89%
13:00 +3°C° 0 mm 3 mps 737 mmHg 90%
14:00 +2°C° 0 mm 3 mps 736 mmHg 90%
15:00 +3°C° 0 mm 2 mps 736 mmHg 89%
16:00 +2°C° 0 mm 2 mps 735 mmHg 88%
17:00 +2°C° 0 mm 2 mps 735 mmHg 87%
18:00 +1°C° 0 mm 3 mps 735 mmHg 86%
19:00 +1°C° 0 mm 3 mps 735 mmHg 84%
20:00 +1°C° 0 mm 3 mps 735 mmHg 84%
21:00 +1°C° 0 mm 3 mps 735 mmHg 84%
22:00 +1°C° 0 mm 3 mps 735 mmHg 84%
23:00 +1°C° 0 mm 3 mps 734 mmHg 82%

22 January, Friday

Time Temperature Precipitation Wind Pressure Humidity
00:00 +1°C° 0 mm 3 mps 733 mmHg 79%
01:00 +1°C° 0 mm 3 mps 733 mmHg 77%
02:00 +1°C° 0 mm 3 mps 732 mmHg 79%
03:00 +1°C° 0 mm 3 mps 731 mmHg 81%
04:00 +1°C° 0 mm 3 mps 731 mmHg 83%
05:00 +1°C° 0 mm 3 mps 730 mmHg 86%
06:00 +1°C° 0 mm 3 mps 730 mmHg 88%
07:00 +2°C° 0 mm 3 mps 729 mmHg 91%
08:00 +2°C° 0 mm 3 mps 729 mmHg 91%
09:00 +2°C° 0 mm 3 mps 729 mmHg 92%
10:00 +2°C° 0 mm 3 mps 729 mmHg 93%
11:00 +4°C° 0 mm 2 mps 729 mmHg 91%
12:00 +4°C° 0 mm 2 mps 729 mmHg 90%
13:00 +5°C° 0 mm 2 mps 729 mmHg 89%
14:00 +3°C° 0 mm 3 mps 729 mmHg 87%
15:00 +3°C° 0 mm 3 mps 729 mmHg 85%
16:00 +1°C° 0 mm 4 mps 729 mmHg 83%
17:00 +1°C° 0 mm 4 mps 729 mmHg 84%
18:00 +1°C° 0 mm 4 mps 730 mmHg 86%
19:00 0°C° 0 mm 4 mps 730 mmHg 87%
20:00 +1°C° 0 mm 3 mps 731 mmHg 87%
21:00 +1°C° 0 mm 3 mps 731 mmHg 86%
22:00 +1°C° 0 mm 3 mps 732 mmHg 86%
23:00 +1°C° 0 mm 3 mps 732 mmHg 86%

23 January, Saturday

Time Temperature Precipitation Wind Pressure Humidity
00:00 +1°C° 0 mm 3 mps 732 mmHg 85%
01:00 +1°C° 0 mm 3 mps 732 mmHg 85%
02:00 0°C° 0 mm 3 mps 732 mmHg 85%
03:00 +1°C° 0 mm 2 mps 732 mmHg 86%
04:00 +1°C° 0 mm 2 mps 732 mmHg 86%
05:00 +1°C° 0 mm 2 mps 732 mmHg 86%
06:00 +1°C° 0 mm 2 mps 732 mmHg 87%
07:00 +1°C° 0 mm 2 mps 732 mmHg 87%
08:00 +1°C° 0 mm 2 mps 733 mmHg 87%
09:00 +2°C° 0 mm 2 mps 733 mmHg 86%
10:00 +2°C° 0 mm 2 mps 733 mmHg 85%
11:00 +2°C° 0 mm 2 mps 733 mmHg 85%
12:00 +3°C° 0 mm 2 mps 733 mmHg 84%
13:00 +3°C° 0 mm 2 mps 733 mmHg 84%
14:00 +3°C° 0 mm 2 mps 733 mmHg 85%
15:00 +2°C° 0 mm 2 mps 733 mmHg 87%
16:00 +2°C° 0 mm 2 mps 733 mmHg 88%
17:00 +1°C° 0 mm 2 mps 733 mmHg 88%
18:00 +1°C° 0 mm 2 mps 733 mmHg 88%
19:00 -1°C° 0 mm 2 mps 734 mmHg 88%
20:00 -1°C° 0 mm 2 mps 734 mmHg 88%
21:00 -1°C° 0 mm 2 mps 734 mmHg 87%
22:00 +1°C° 0 mm 1 mps 734 mmHg 87%
23:00 0°C° 0 mm 1 mps 734 mmHg 87%
Show more